Location: Praha
(50.0830°N, 14.4670°E)
Time: 22:46:52
(UTC+02:00)

ISS - Visible Passes

Search period start: 14 April 2026 00:00
Search period end: 24 April 2026 00:00
Orbit: 415 x 424 km, 51.6° (Epoch: 14 April)

Date Brightness Start Highest point End Pass type
(mag) Time Alt. Az. Time Alt. Az. Time Alt. Az.
18 Apr -1.1 05:27:12 10° S 05:29:05 14° SE 05:30:59 10° ESE visible
21 Apr -1.8 04:41:02 11° S 04:43:24 21° SE 04:46:02 10° E visible
22 Apr -1.5 03:55:25 14° SSE 03:56:09 14° SE 03:58:04 10° ESE visible
23 Apr -3.0 04:42:40 16° SW 04:45:02 43° SSE 04:48:15 10° E visible
